[[{"header":{"parameterUnit":"m.s-1","parameterCategory":1,"la1":30.2991,"la2":30.254,"lo1":-89.0895,"lo2":-89.0444,"dy":0.0017,"dx":0.0017,"nx":28,"ny":28,"refTime":"2024-04-21T21:00:00:Z","depth":0,"parameterNumber":2,"parameterNumberName":"U-component_of_WINDS"},"data":[0,0,0,0,0,0,0,0,0,0,0,0,0,0,0,0,0,0,0,0,0,0,0,0,0,0,0,0,0,0,0,0,0,0,0,0,0,0,0,0,0,0,0,0,0,0,0,0,0,0,0,0,0,0,0,0,0,0,0.9051,0.9051,0,0.9019,0.9019,0.9019,0.9025,0.9026,0.9027,0.9027,0.899,0.8988,0.8987,0,0,0,0,0,0,0,0,0,0,0,0,0,0.9116,0.9115,0.9052,0.9051,0.9051,0.9019,0.9019,0.9018,0.9025,0.9026,0.9027,0.9027,0.899,0.8989,0.8987,0,0,0,0,0,0,0,0,0,0,0,0,0,0.9086,0.9114,0.9052,0.905,0.905,0.9019,0.9019,0.9018,0.9025,0.9026,0.9027,0.9028,0.8991,0.8989,0.8986,0.8954,0,0,0.8979,0.8978,0,0,0,0,0,0,0,0,0.9088,0.9084,0.9051,0.905,0.905,0.9027,0.9028,0.8996,0.9025,0.9034,0.9027,0.9028,0.9001,0.8998,0.899,0.8952,0.895,0.8979,0.8978,0.8977,0.8976,0,0,0,0,0,0,0,0.909,0.9085,0.9039,0.905,0.905,0.9051,0.9047,0.9022,0.9013,0.9034,0.9034,0.903,0.9001,0.8992,0.8989,0.895,0.8979,0.8977,0.8976,0.8975,0.8884,0.8883,0,0,0,0,0,0,0.9093,0.9087,0.904,0.9038,0.9072,0.9049,0.9045,0.9034,0.9013,0.9011,0.903,0.9031,0.8996,0.8992,0.8988,0.8948,0.8977,0.8974,0.8973,0.8885,0.8883,0.8882,0,0,0,0,0,0,0.9094,0.9089,0.9041,0.9062,0.9056,0.9047,0.9034,0.9032,0.9024,0.901,0.9008,0.9022,0.8996,0.8991,0.8963,0.8947,0.8973,0.8971,0.8886,0.8884,0.8883,0.8868,0,0,0,0,0,0,0.9096,0.9089,0.9077,0.9062,0.9055,0.9017,0.9033,0.9031,0.902,0.9021,0.9003,0.9001,0.8997,0.8966,0.896,0.8944,0.8969,0.8887,0.8885,0.8883,0.887,0.8866,0.8863,0,0,0,0,0,0.9098,0.9073,0.9076,0.9071,0.904,0.9016,0.9012,0.9009,0.9019,0.9006,0.8998,0.9001,0.895,0.8963,0.8956,0.8939,0.8888,0.8886,0.8883,0.8871,0.8867,0.8863,0,0,0,0,0,0,0.9084,0.9071,0.9074,0.9044,0.9031,0.9017,0.9001,0.9004,0.8987,0.8989,0.8985,0.8981,0.8951,0.8943,0.8957,0.8907,0.892,0.8917,0.8913,0.8909,0.8905,0.8907,0.8967,0,0,0,0,0,0.9078,0.9061,0.905,0.9024,0.9017,0.9011,0.9,0.8999,0.8985,0.8979,0.8969,0.8954,0.8934,0.8921,0.8903,0.8869,0.8865,0.8854,0.8851,0.8848,0.8844,0.8826,0.8821,0.8875,0.8875,0.8875,0,0,0.9064,0.9055,0.9044,0.9021,0.9011,0.8992,0.9006,0.8985,0.897,0.8975,0.8948,0.894,0.8923,0.8892,0.8878,0.8884,0.8829,0.8845,0.8843,0.8841,0.8823,0.8818,0.8813,0.8873,0.8873,0.8874,0,0,0.9029,0.9021,0.8998,0.8989,0.8974,0.897,0.8965,0.8951,0.8946,0.8919,0.8922,0.8905,0.8872,0.886,0.8849,0.8812,0.8814,0.8806,0.8787,0.8769,0.8765,0.8761,0.8746,0.8741,0.8802,0.8802,0.8802,0,0.9013,0.8985,0.8986,0.8965,0.8954,0.8961,0.8937,0.8928,0.8907,0.8899,0.8907,0.8866,0.8855,0.8821,0.8813,0.8804,0.8797,0.8806,0.8766,0.8762,0.8758,0.8744,0.8739,0.8801,0.8801,0.8802,0.8802,0,0.8966,0.8947,0.893,0.8912,0.89,0.8878,0.8874,0.8862,0.8863,0.8858,0.883,0.8818,0.8797,0.8789,0.8789,0.8755,0.876,0.8767,0.878,0.8752,0.8739,0.8733,0.88,0.88,0.8801,0.8801,0,0,0.8918,0.8903,0.8896,0.8888,0.8874,0.8858,0.8837,0.8818,0.8807,0.8794,0.8775,0.8748,0.8754,0.8743,0.8742,0.8726,0.8696,0.8735,0.8734,0.8727,0.8657,0.865,0.8644,0.8699,0.8698,0.8697,0.8658,0,0.888,0.8843,0.8844,0.8809,0.8791,0.8798,0.8779,0.8768,0.8763,0.8746,0.8741,0.8721,0.8733,0.8725,0.8711,0.8703,0.8682,0.8706,0.8679,0.8678,0.8681,0.8638,0.863,0.8594,0.8653,0.8652,0.8652,0,0.883,0.8817,0.8781,0.877,0.8762,0.8745,0.8729,0.8713,0.8701,0.8698,0.8687,0.8688,0.8666,0.8682,0.865,0.8666,0.8656,0.865,0.8649,0.8644,0.8662,0.863,0.8582,0.8576,0.8644,0.8644,0.8645,0,0.8798,0.8771,0.8745,0.8739,0.8725,0.8713,0.8707,0.8696,0.8685,0.867,0.8663,0.8645,0.8635,0.8621,0.8618,0.863,0.8586,0.8601,0.8582,0.8582,0.857,0.857,0.8518,0.8567,0.8567,0.8567,0.8567,0,0.8754,0.8731,0.8731,0.8715,0.8689,0.8691,0.8665,0.866,0.865,0.8633,0.8638,0.8621,0.8619,0.8602,0.86,0.8573,0.8569,0.8565,0.8565,0.8564,0.8564,0.8555,0.8556,0.8565,0.8566,0.8566,0.8566,0,0.8711,0.8711,0.8683,0.8674,0.8672,0.8653,0.8645,0.8629,0.8626,0.8604,0.8599,0.8594,0.8574,0.857,0.8547,0.8545,0.8513,0.8516,0.8517,0.8517,0.8497,0.8498,0.8435,0.8426,0.8483,0.8482,0.8482,0,0.8683,0.8665,0.8655,0.8645,0.8638,0.8622,0.8611,0.8612,0.8601,0.8586,0.8572,0.8554,0.8538,0.8506,0.8499,0.8481,0.8482,0.8462,0.8479,0.8479,0.848,0.848,0.8478,0.8457,0.8456,0.8456,0.8456,0,0.8631,0.8632,0.8617,0.8602,0.859,0.8578,0.8567,0.8558,0.8557,0.8544,0.8525,0.8513,0.849,0.8471,0.8454,0.8446,0.845,0.8451,0.8445,0.8442,0.8444,0.8441,0.8506,0.8451,0.8452,0.8452,0.8452,0.8452,0.8593,0.8578,0.8569,0.8553,0.8545,0.8535,0.852,0.8516,0.8501,0.8482,0.8484,0.8463,0.8452,0.8429,0.8421,0.8403,0.8409,0.8401,0.8399,0.8396,0.8394,0.8449,0.84,0.84,0.84,0.84,0.8401,0,0.854,0.8535,0.8521,0.8506,0.8493,0.8501,0.8489,0.8477,0.8458,0.8448,0.8434,0.8412,0.8394,0.8387,0.8369,0.8356,0.8358,0.8352,0.8351,0.8349,0.839,0.8396,0.8351,0.8351,0.8351,0.8351,0.8351,0.8351,0.8511,0.8486,0.8486,0.8458,0.8453,0.8433,0.8426,0.8416,0.8408,0.8384,0.8369,0.8366,0.8357,0.8339,0.8322,0.8321,0.8313,0.8305,0.8304,0.8342,0.8346,0.8351,0.8357,0.8304,0.8304,0.8265,0.8265,0.8264]},{"header":{"parameterUnit":"m.s-1","parameterCategory":1,"la1":30.2991,"la2":30.254,"lo1":-89.0895,"lo2":-89.0444,"dy":0.0017,"dx":0.0017,"nx":28,"ny":28,"refTime":"2024-04-21T21:00:00:Z","depth":0,"parameterNumber":3,"parameterNumberName":"V-component_of_WINDS"},"data":[0,0,0,0,0,0,0,0,0,0,0,0,0,0,0,0,0,0,0,0,0,0,0,0,0,0,0,0,0,0,0,0,0,0,0,0,0,0,0,0,0,0,0,0,0,0,0,0,0,0,0,0,0,0,0,0,0,0,-7.3388,-7.3389,0,-7.3478,-7.3479,-7.348,-7.3349,-7.3344,-7.334,-7.3335,-7.3423,-7.3429,-7.3436,0,0,0,0,0,0,0,0,0,0,0,0,0,-7.3098,-7.3104,-7.3388,-7.3389,-7.339,-7.3478,-7.3479,-7.348,-7.335,-7.3344,-7.3339,-7.3333,-7.3421,-7.3428,-7.3436,0,0,0,0,0,0,0,0,0,0,0,0,0,-7.3209,-7.3106,-7.3387,-7.3336,-7.3332,-7.3477,-7.3479,-7.348,-7.3351,-7.3344,-7.3337,-7.3331,-7.3418,-7.3428,-7.3437,-7.3636,0,0,-7.3468,-7.3472,0,0,0,0,0,0,0,0,-7.3203,-7.322,-7.3342,-7.3339,-7.3335,-7.3395,-7.3408,-7.3532,-7.3353,-7.3344,-7.3335,-7.3327,-7.3419,-7.3428,-7.346,-7.364,-7.3644,-7.3468,-7.3474,-7.3479,-7.3482,0,0,0,0,0,0,0,-7.3196,-7.3215,-7.3423,-7.3344,-7.334,-7.3306,-7.3314,-7.3431,-7.3418,-7.3344,-7.3335,-7.3347,-7.3416,-7.3451,-7.3461,-7.3645,-7.3468,-7.3477,-7.3483,-7.3487,-7.3993,-7.4001,0,0,0,0,0,0,-7.3195,-7.321,-7.342,-7.3426,-7.3251,-7.3317,-7.3326,-7.3383,-7.3417,-7.3416,-7.3353,-7.3341,-7.3437,-7.345,-7.3464,-7.3699,-7.3479,-7.3488,-7.3494,-7.3986,-7.3995,-7.4003,0,0,0,0,0,0,-7.3189,-7.3215,-7.3416,-7.3315,-7.3339,-7.3329,-7.3394,-7.3388,-7.3423,-7.3424,-7.342,-7.3392,-7.3432,-7.345,-7.3595,-7.37,-7.3492,-7.3501,-7.3977,-7.3989,-7.3999,-7.4172,0,0,0,0,0,0,-7.3181,-7.3214,-7.329,-7.3318,-7.3345,-7.3548,-7.3401,-7.3395,-7.3441,-7.3426,-7.3459,-7.3458,-7.3428,-7.3581,-7.3605,-7.371,-7.3509,-7.3968,-7.3982,-7.3996,-7.4157,-7.4188,-7.4215,0,0,0,0,0,-7.3172,-7.3334,-7.3295,-7.3321,-7.344,-7.3554,-7.3569,-7.3533,-7.3451,-7.3527,-7.3527,-7.3457,-7.3685,-7.3597,-7.3622,-7.3733,-7.3961,-7.3978,-7.3995,-7.4144,-7.4182,-7.4214,0,0,0,0,0,0,-7.3317,-7.3337,-7.3293,-7.347,-7.3512,-7.3532,-7.3627,-7.3574,-7.3639,-7.3622,-7.3572,-7.3581,-7.3736,-7.3748,-7.365,-7.3927,-7.3809,-7.3832,-7.3914,-7.395,-7.3978,-7.3972,-7.3517,0,0,0,0,0,-7.337,-7.3462,-7.3474,-7.3629,-7.3652,-7.3637,-7.3685,-7.3654,-7.3694,-7.371,-7.3721,-7.3762,-7.3842,-7.3896,-7.397,-7.4158,-7.4163,-7.4246,-7.4275,-7.4299,-7.4319,-7.442,-7.4457,-7.4059,-7.4059,-7.4058,0,0,-7.3479,-7.3501,-7.3563,-7.3659,-7.3687,-7.3783,-7.3652,-7.3759,-7.3829,-7.3726,-7.3864,-7.3874,-7.3916,-7.4083,-7.4157,-7.4098,-7.443,-7.432,-7.4339,-7.4347,-7.4441,-7.4479,-7.4512,-7.407,-7.4068,-7.4066,0,0,-7.3728,-7.3755,-7.3887,-7.3919,-7.3965,-7.3953,-7.3985,-7.4014,-7.4017,-7.4156,-7.4081,-7.4162,-7.4302,-7.4336,-7.4371,-7.4634,-7.4572,-7.4659,-7.4809,-7.4908,-7.4939,-7.4967,-7.5061,-7.5095,-7.4679,-7.468,-7.468,0,-7.3858,-7.4001,-7.3961,-7.4074,-7.4118,-7.4031,-7.4164,-7.4196,-7.4264,-7.4296,-7.4228,-7.4403,-7.4425,-7.4599,-7.4664,-7.4695,-7.4729,-7.4655,-7.4938,-7.4966,-7.4991,-7.508,-7.5115,-7.469,-7.4689,-7.4688,-7.4687,0,-7.4159,-7.4259,-7.436,-7.443,-7.4485,-7.4608,-7.4585,-7.4646,-7.461,-7.4605,-7.4747,-7.4771,-7.4849,-7.4887,-7.4852,-7.5057,-7.5019,-7.4947,-7.4827,-7.504,-7.5123,-7.5157,-7.4705,-7.4701,-7.4698,-7.4696,0,0,-7.4501,-7.4549,-7.4586,-7.4617,-7.4662,-7.4738,-7.4856,-7.4934,-7.4987,-7.5036,-7.5134,-7.5255,-7.5188,-7.5228,-7.5196,-7.5282,-7.549,-7.5198,-7.5199,-7.5252,-7.5717,-7.5773,-7.5813,-7.5449,-7.5455,-7.546,-7.5714,0,-7.475,-7.4957,-7.4925,-7.5123,-7.5216,-7.5135,-7.5237,-7.5275,-7.5275,-7.5351,-7.5349,-7.5436,-7.5341,-7.5365,-7.5447,-7.5448,-7.5583,-7.5428,-7.5538,-7.5543,-7.5531,-7.5856,-7.5915,-7.6153,-7.5746,-7.5752,-7.5756,0,-7.5068,-7.5132,-7.5341,-7.5372,-7.541,-7.5503,-7.5572,-7.5647,-7.5688,-7.5681,-7.5727,-7.5679,-7.5796,-7.5675,-7.5834,-7.573,-7.5773,-7.578,-7.5788,-7.5797,-7.5663,-7.5875,-7.6228,-7.6264,-7.5806,-7.5802,-7.5798,0,-7.5299,-7.5436,-7.5579,-7.5608,-7.5647,-7.5715,-7.5734,-7.5769,-7.5818,-7.5878,-7.5909,-7.5981,-7.6021,-7.6077,-7.605,-7.5964,-7.6215,-7.6091,-7.6212,-7.6213,-7.6268,-7.6265,-7.6634,-7.6296,-7.6295,-7.6294,-7.6294,0,-7.558,-7.5711,-7.5683,-7.5771,-7.5916,-7.5876,-7.602,-7.6029,-7.606,-7.6148,-7.6081,-7.6164,-7.6122,-7.6202,-7.6181,-7.6317,-7.6335,-7.6332,-7.6325,-7.6339,-7.6339,-7.6366,-7.6349,-7.6304,-7.6302,-7.63,-7.6298,0,-7.5862,-7.5848,-7.5999,-7.6025,-7.6034,-7.614,-7.6161,-7.6243,-7.6237,-7.6348,-7.6372,-7.6363,-7.6453,-7.6432,-7.653,-7.6515,-7.6687,-7.6658,-7.6674,-7.6667,-7.679,-7.6779,-7.719,-7.7242,-7.6869,-7.6872,-7.6875,0,-7.6043,-7.6142,-7.618,-7.6235,-7.626,-7.6349,-7.6399,-7.6364,-7.642,-7.6474,-7.655,-7.6635,-7.6701,-7.6849,-7.685,-7.6925,-7.6898,-7.7037,-7.6909,-7.692,-7.6901,-7.6896,-7.6905,-7.7062,-7.7067,-7.707,-7.7073,0,-7.6366,-7.6355,-7.6431,-7.6507,-7.657,-7.6627,-7.6677,-7.6725,-7.6694,-7.6759,-7.6852,-7.6904,-7.7005,-7.709,-7.7159,-7.7177,-7.7121,-7.7113,-7.7145,-7.7161,-7.7166,-7.7165,-7.6744,-7.7104,-7.7101,-7.7099,-7.7097,-7.7096,-7.6603,-7.6688,-7.6729,-7.6816,-7.6851,-7.69,-7.6979,-7.6984,-7.7061,-7.7143,-7.7116,-7.7223,-7.726,-7.7348,-7.7374,-7.7456,-7.7403,-7.7449,-7.7461,-7.7473,-7.7489,-7.7153,-7.7468,-7.7467,-7.7466,-7.7465,-7.7465,0,-7.6923,-7.6946,-7.7027,-7.7101,-7.717,-7.7112,-7.7165,-7.7226,-7.7321,-7.7363,-7.743,-7.7537,-7.7619,-7.7627,-7.7705,-7.7769,-7.7745,-7.779,-7.7785,-7.779,-7.7531,-7.7496,-7.7808,-7.7808,-7.7808,-7.7808,-7.7808,-7.7808,-7.7098,-7.724,-7.7233,-7.7391,-7.7411,-7.7517,-7.7552,-7.7596,-7.7629,-7.7752,-7.7822,-7.7827,-7.7855,-7.7934,-7.8006,-7.8006,-7.8038,-7.8094,-7.8084,-7.7842,-7.7808,-7.7776,-7.7743,-7.8101,-7.8102,-7.8336,-7.8339,-7.834]}]]